TimeEST,TemperatureF,Dew PointF,Humidity,Sea Level PressureIn,VisibilityMPH,Wind Direction,Wind SpeedMPH,Gust SpeedMPH,PrecipitationIn,Events,Conditions,WindDirDegrees,DateUTC
12:15 AM,42.8,41.0,93,30.19,10.0,Calm,Calm,-,N/A,,Clear,0,2014-01-13 05:15:00
12:35 AM,42.8,41.0,93,30.19,10.0,Calm,Calm,-,N/A,,Clear,0,2014-01-13 05:35:00
12:55 AM,42.8,41.0,93,30.19,10.0,Calm,Calm,-,N/A,,Clear,0,2014-01-13 05:55:00
1:15 AM,42.8,41.0,93,30.18,10.0,Calm,Calm,-,N/A,,Clear,0,2014-01-13 06:15:00
1:35 AM,42.8,41.0,93,30.19,10.0,Calm,Calm,-,N/A,,Clear,0,2014-01-13 06:35:00
1:55 AM,42.8,41.0,93,30.19,10.0,Calm,Calm,-,N/A,,Clear,0,2014-01-13 06:55:00
2:15 AM,42.8,41.0,93,30.18,10.0,Calm,Calm,-,N/A,,Clear,0,2014-01-13 07:15:00
2:35 AM,42.8,42.8,100,30.18,10.0,Calm,Calm,-,N/A,,Clear,0,2014-01-13 07:35:00
2:55 AM,42.8,42.8,100,30.17,10.0,Calm,Calm,-,N/A,,Clear,0,2014-01-13 07:55:00
3:15 AM,42.8,42.8,100,30.17,10.0,Calm,Calm,-,N/A,,Clear,0,2014-01-13 08:15:00
3:35 AM,42.8,42.8,100,30.17,10.0,Calm,Calm,-,N/A,,Clear,0,2014-01-13 08:35:00
3:55 AM,42.8,42.8,100,30.16,10.0,East,4.6,-,N/A,,Clear,90,2014-01-13 08:55:00
4:15 AM,42.8,42.8,100,30.16,10.0,East,4.6,-,N/A,,Clear,80,2014-01-13 09:15:00
4:35 AM,42.8,42.8,100,30.16,10.0,Calm,Calm,-,N/A,,Clear,0,2014-01-13 09:35:00
4:55 AM,42.8,42.8,100,30.16,10.0,ENE,3.5,-,N/A,,Clear,70,2014-01-13 09:55:00
5:15 AM,44.6,42.8,93,30.17,10.0,Calm,Calm,-,N/A,,Clear,0,2014-01-13 10:15:00
5:35 AM,44.6,42.8,93,30.16,10.0,East,3.5,-,N/A,,Clear,80,2014-01-13 10:35:00
5:55 AM,42.8,41.0,93,30.15,10.0,East,3.5,-,N/A,,Clear,80,2014-01-13 10:55:00
6:15 AM,42.8,41.0,93,30.15,10.0,East,3.5,-,N/A,,Clear,90,2014-01-13 11:15:00
6:35 AM,42.8,42.8,100,30.15,10.0,Calm,Calm,-,N/A,,Clear,0,2014-01-13 11:35:00
6:55 AM,42.8,42.8,100,30.15,10.0,ESE,3.5,-,N/A,,Clear,110,2014-01-13 11:55:00
7:15 AM,42.8,42.8,100,30.13,10.0,East,4.6,-,N/A,,Clear,90,2014-01-13 12:15:00
7:35 AM,44.6,42.8,93,30.14,10.0,East,4.6,-,N/A,,Clear,90,2014-01-13 12:35:00
7:55 AM,44.6,42.8,93,30.14,10.0,ESE,3.5,-,N/A,,Clear,120,2014-01-13 12:55:00
8:15 AM,44.6,42.8,93,30.15,10.0,East,3.5,-,N/A,,Clear,90,2014-01-13 13:15:00
8:35 AM,46.4,44.6,93,30.15,10.0,East,3.5,-,N/A,,Clear,90,2014-01-13 13:35:00
8:55 AM,46.4,44.6,93,30.15,10.0,Calm,Calm,-,N/A,,Clear,0,2014-01-13 13:55:00
9:15 AM,51.8,44.6,76,30.15,10.0,Calm,Calm,-,N/A,,Clear,0,2014-01-13 14:15:00
9:35 AM,53.6,44.6,72,30.15,10.0,Calm,Calm,-,N/A,,Clear,0,2014-01-13 14:35:00
9:55 AM,53.6,44.6,72,30.16,10.0,Calm,Calm,-,N/A,,Clear,0,2014-01-13 14:55:00
10:15 AM,59.0,44.6,59,30.16,10.0,Calm,Calm,-,N/A,,Clear,0,2014-01-13 15:15:00
10:35 AM,59.0,42.8,55,30.15,10.0,SE,4.6,-,N/A,,Clear,140,2014-01-13 15:35:00
10:55 AM,62.6,42.8,48,30.13,10.0,SE,6.9,-,N/A,,Clear,140,2014-01-13 15:55:00
11:15 AM,64.4,42.8,45,30.12,10.0,SSE,9.2,-,N/A,,Clear,160,2014-01-13 16:15:00
11:35 AM,64.4,44.6,49,30.11,10.0,SSE,6.9,-,N/A,,Clear,150,2014-01-13 16:35:00
11:55 AM,68.0,44.6,43,30.10,10.0,South,10.4,16.1,N/A,,Clear,190,2014-01-13 16:55:00
12:15 PM,68.0,42.8,40,30.09,10.0,SSW,11.5,-,N/A,,Clear,200,2014-01-13 17:15:00
12:35 PM,68.0,44.6,43,30.08,10.0,SW,10.4,-,N/A,,Clear,220,2014-01-13 17:35:00
12:55 PM,68.0,44.6,43,30.07,10.0,South,8.1,-,N/A,,Clear,190,2014-01-13 17:55:00
1:15 PM,68.0,44.6,43,30.06,10.0,SW,6.9,-,N/A,,Clear,220,2014-01-13 18:15:00
1:35 PM,69.8,46.4,43,30.05,10.0,SSW,9.2,-,N/A,,Clear,210,2014-01-13 18:35:00
1:55 PM,69.8,46.4,43,30.03,10.0,SSW,6.9,-,N/A,,Clear,210,2014-01-13 18:55:00
2:15 PM,71.6,48.2,43,30.03,10.0,SSW,5.8,-,N/A,,Clear,200,2014-01-13 19:15:00
2:35 PM,68.0,48.2,49,30.01,10.0,SSW,5.8,-,N/A,,Clear,200,2014-01-13 19:35:00
2:55 PM,68.0,50.0,52,29.99,10.0,SW,3.5,-,N/A,,Clear,230,2014-01-13 19:55:00
3:15 PM,68.0,50.0,52,30.00,10.0,SW,3.5,-,N/A,,Clear,220,2014-01-13 20:15:00
3:35 PM,68.0,50.0,52,29.98,10.0,South,3.5,-,N/A,,Clear,170,2014-01-13 20:35:00
3:55 PM,68.0,50.0,52,29.97,10.0,SE,4.6,-,N/A,,Clear,140,2014-01-13 20:55:00
4:15 PM,66.2,50.0,56,29.98,10.0,SSW,3.5,-,N/A,,Scattered Clouds,210,2014-01-13 21:15:00
4:35 PM,66.2,50.0,56,30.00,10.0,West,4.6,-,N/A,,Mostly Cloudy,260,2014-01-13 21:35:00
4:55 PM,62.6,55.4,77,30.00,7.0,Calm,Calm,-,N/A,Rain,Rain,0,2014-01-13 21:55:00
5:15 PM,60.8,57.2,88,29.98,4.0,East,5.8,-,N/A,Rain,Heavy Rain,80,2014-01-13 22:15:00
5:35 PM,60.8,57.2,88,30.01,10.0,NW,10.4,-,N/A,Rain,Light Rain,310,2014-01-13 22:35:00
5:55 PM,60.8,57.2,88,30.05,7.0,WNW,8.1,-,N/A,Rain,Rain,300,2014-01-13 22:55:00
6:15 PM,59.0,55.4,88,30.04,5.0,NNW,8.1,-,N/A,Rain,Heavy Rain,330,2014-01-13 23:15:00
6:35 PM,59.0,55.4,88,30.05,2.5,Calm,Calm,-,N/A,Rain,Heavy Rain,0,2014-01-13 23:35:00
6:55 PM,59.0,57.2,94,30.03,5.0,ESE,4.6,-,N/A,Rain,Rain,110,2014-01-13 23:55:00
7:15 PM,59.0,57.2,94,30.00,10.0,East,5.8,-,N/A,Rain,Light Rain,100,2014-01-14 00:15:00
7:35 PM,59.0,57.2,94,30.00,10.0,ESE,5.8,-,N/A,Rain,Light Rain,120,2014-01-14 00:35:00
7:55 PM,59.0,57.2,94,30.00,10.0,SE,3.5,-,N/A,Rain,Light Rain,130,2014-01-14 00:55:00
8:15 PM,59.0,57.2,94,29.98,10.0,East,4.6,-,N/A,Rain,Rain,100,2014-01-14 01:15:00
8:35 PM,59.0,57.2,94,29.98,10.0,SE,6.9,-,N/A,Rain,Light Rain,130,2014-01-14 01:35:00
8:55 PM,59.0,57.2,94,29.98,10.0,SE,6.9,-,N/A,Rain,Light Rain,140,2014-01-14 01:55:00
9:15 PM,59.0,57.2,94,29.96,10.0,SE,4.6,-,N/A,,Light Drizzle,130,2014-01-14 02:15:00
9:35 PM,59.0,57.2,94,29.96,10.0,SE,3.5,-,N/A,Rain,Light Rain,130,2014-01-14 02:35:00
9:55 PM,59.0,57.2,94,29.96,10.0,ESE,4.6,-,N/A,Rain,Light Rain,120,2014-01-14 02:55:00
10:15 PM,59.0,57.2,94,29.93,7.0,ESE,8.1,-,N/A,Rain,Rain,120,2014-01-14 03:15:00
10:35 PM,59.0,57.2,94,29.93,7.0,SE,8.1,-,N/A,Rain,Rain,140,2014-01-14 03:35:00
10:55 PM,59.0,57.2,94,29.92,10.0,SE,5.8,-,N/A,Rain,Light Rain,140,2014-01-14 03:55:00
11:15 PM,59.0,57.2,94,29.92,10.0,South,3.5,-,N/A,Rain,Light Rain,170,2014-01-14 04:15:00
11:35 PM,59.0,57.2,94,29.92,10.0,SSE,6.9,-,N/A,Rain,Light Rain,160,2014-01-14 04:35:00
11:55 PM,59.0,57.2,94,29.91,10.0,SSE,5.8,-,N/A,Rain,Rain,150,2014-01-14 04:55:00